This is the latest recevied weather packets stored in our database for station/object KG5EO. If no packets are shown the sender has not sent any weather packets the latest 10 day(s).
| Time | Temp. | Humidity | Pressure | Rain* | Wind** | Luminosity | Snow |
|---|---|---|---|---|---|---|---|
| 1777299975 | 16.11° C | 39% | 41.1 hPa | 0 mm | - | - | - |
| 1777299676 | 16.11° C | 38% | 41.1 hPa | 0 mm | - | - | - |
| 1777299376 | 16.11° C | 40% | 41.1 hPa | 0 mm | - | - | - |
| 1777299074 | 15.56° C | 41% | 41.1 hPa | 0 mm | - | - | - |
| 1777298774 | 15.56° C | 44% | 41.1 hPa | 0 mm | - | - | - |
| 1777298476 | 14.44° C | 45% | 41.1 hPa | 0 mm | - | - | - |
| 1777298174 | 13.89° C | 45% | 41.1 hPa | 0 mm | - | - | - |
| 1777297874 | 13.33° C | 46% | 41.1 hPa | 0 mm | - | - | - |
| 1777297576 | 13.33° C | 48% | 41.1 hPa | 0 mm | - | - | - |
| 1777297273 | 12.78° C | 49% | 41.1 hPa | 0 mm | - | - | - |
| 1777296973 | 12.22° C | 50% | 41.1 hPa | 0 mm | - | - | - |
| 1777296675 | 11.67° C | 50% | 41.1 hPa | 0 mm | - | - | - |
| 1777296373 | 11.67° C | 55% | 41.1 hPa | 0 mm | - | - | - |
| 1777296073 | 11.67° C | 52% | 41.1 hPa | 0 mm | - | - | - |
| 1777295775 | 11.67° C | 52% | 41.1 hPa | 0 mm | - | - | - |
| 1777295472 | 11.11° C | 52% | 41.1 hPa | 0 mm | - | - | - |
| 1777295172 | 11.11° C | 51% | 41.1 hPa | 0 mm | - | - | - |
| 1777294874 | 11.11° C | 50% | 41.1 hPa | 0 mm | - | - | - |
| 1777294572 | 11.11° C | 51% | 41.1 hPa | 0 mm | - | - | - |
| 1777294272 | 11.11° C | 52% | 41.1 hPa | 0 mm | - | - | - |
| 1777293974 | 10.56° C | 56% | 41 hPa | 0 mm | - | - | - |
| 1777293671 | 10.56° C | 52% | 41 hPa | 0 mm | - | - | - |
| 1777293371 | 10.56° C | 52% | 41 hPa | 0 mm | - | - | - |
| 1777293073 | 11.11° C | 52% | 41 hPa | 0 mm | - | - | - |
| 1777292772 | 11.11° C | 52% | 41 hPa | 0 mm | - | - | - |
* Rain latest hour (hover to see other rain measurements)
** Current wind speed in m/s (hover to see current wind gust speed)